Wind_Speed
8 8 7 8 8 7 6 6 6 6 6 5 4 3 3 3 5 5 5 5 5 4 3 3 4 6 7 7 7 7 6 6 7 7 7 7 7 7 8 8 9 9 8 8 9 10 11 12 13 13 13 14 15 17 18 20 19 19 20 22 24 24 22 20 20 20 21 21 22 24 24 24 22 21 22 24 23 23 23 23 23 23 23 23 24 24 25 26
7 5 5 5 6 5 4 3 3 4 4 3 2 1 1 1 1 2 2 3 3 3 3 4 5 6 6 6 6 7 7 7 7 7 7 8 8 8 9 9 9 9 10 11 12 13 14 15 16 17 18 18 19 20 21 21 21 21 21 24 25 24 23 22 22 24 24 25 25 26 25 24 23 23 24 25 26 26 27 26 26 26 24 25 27 28 29 30
7 5 4 4 4 4 3 2 0 2 3 2 1 1 1 1 1 2 2 2 2 3 4 5 6 6 6 6 7 8 8 8 8 8 9 10 11 11 11 12 12 12 13 15 17 18 18 19 20 21 21 21 21 21 21 21 21 21 23 25 25 23 23 23 23 24 24 25 25 25 26 26 25 25 27 28 28 29 30 29 28 29 27 27 28 29 31 31
7 4 4 4 4 4 3 2 2 3 3 2 2 2 2 2 2 3 4 4 4 5 6 7 8 8 7 7 8 10 10 11 11 11 12 12 13 14 15 15 16 16 17 19 20 20 20 20 21 21 21 21 21 21 21 21 21 22 24 25 24 23 23 22 23 23 23 25 26 26 27 28 27 28 29 30 31 32 30 28 28 30 29 28 29 30 31 33
5 3 4 5 5 5 5 5 5 5 4 3 3 3 3 3 3 3 4 4 4 5 7 8 9 9 8 8 9 10 11 12 11 11 12 13 14 15 16 17 18 18 19 20 20 20 20 20 20 20 21 21 20 20 20 19 20 23 24 24 24 24 25 23 23 24 24 26 27 28 29 29 29 30 31 31 34 33 29 28 29 30 30 30 30 31 31 32
4 3 4 5 5 5 5 5 5 4 3 3 3 2 3 3 3 3 4 4 5 5 6 7 8 8 9 10 10 11 11 11 10 9 10 11 13 14 16 17 18 19 19 19 19 19 19 20 20 19 20 19 20 19 19 19 21 24 24 24 24 24 25 24 24 25 26 27 28 29 30 31 31 32 33 34 36 32 28 29 31 31 31 31 31 31 31 31
5 4 3 2 2 2 3 3 4 4 4 4 3 3 3 3 3 3 4 4 5 5 6 7 7 8 9 9 10 10 10 11 11 12 12 12 13 14 15 16 17 17 18 18 18 18 19 19 19 19 19 19 19 19 19 19 21 23 24 23 23 24 25 25 25 26 27 28 29 31 32 31 32 35 36 36 33 29 28 30 31 31 31 31 30 30 31 31
5 3 2 1 1 2 3 3 4 5 5 6 6 5 4 4 4 4 4 5 6 6 7 7 8 8 9 9 9 9 9 10 11 12 12 12 13 13 14 14 15 16 17 17 17 18 18 18 18 18 19 18 19 18 19 20 21 23 23 22 23 23 24 25 26 26 28 29 30 32 33 32 33 36 39 34 28 27 28 29 30 31 31 31 31 31 31 32
4 2 1 2 3 3 3 3 4 5 5 6 7 7 6 5 6 6 6 6 7 8 8 9 9 9 9 9 8 9 9 9 10 10 11 12 11 12 13 13 14 15 16 16 16 16 16 16 17 17 18 18 19 19 19 20 21 21 22 23 23 24 25 26 27 27 29 29 30 33 33 33 32 36 37 28 24 26 27 29 29 31 31 30 30 30 30 31
3 2 1 2 3 4 4 4 4 4 5 5 5 6 6 6 7 8 8 8 9 10 10 10 10 10 9 9 8 9 9 9 10 11 12 12 10 11 12 13 14 14 14 15 15 15 15 15 15 16 17 17 17 18 18 19 21 21 22 23 24 25 25 26 27 27 29 30 31 33 34 32 32 36 33 24 23 27 27 29 29 30 31 29 30 30 30 31
3 2 2 3 3 3 4 5 5 5 5 5 5 5 5 7 8 8 9 9 10 10 11 11 11 10 9 8 8 8 9 10 10 11 12 11 11 11 12 13 14 14 14 14 15 15 15 15 15 15 16 16 17 17 19 19 21 21 22 24 24 25 26 27 27 27 28 29 29 31 34 33 31 33 28 23 24 27 26 26 26 28 29 29 30 30 31 31
3 1 2 3 3 3 3 4 5 5 5 5 4 4 5 5 6 7 8 9 9 10 10 10 10 9 8 8 8 9 10 10 10 10 10 11 12 13 13 14 15 16 15 15 15 16 16 16 15 16 16 17 18 18 19 19 21 22 23 25 25 25 26 25 25 25 25 26 26 29 34 34 29 25 22 22 24 23 23 23 22 25 26 27 29 30 31 31
2 1 2 2 2 2 2 3 3 3 3 3 3 3 4 4 5 5 6 7 7 8 8 8 8 8 8 8 9 9 10 10 10 10 10 11 12 14 15 15 15 15 15 15 15 15 15 15 15 16 17 18 19 18 19 20 22 22 23 26 26 25 24 22 21 22 23 24 25 26 32 34 27 20 18 20 23 22 23 22 22 24 25 26 27 28 30 30
2 1 1 1 2 2 2 2 2 2 2 1 1 1 2 2 3 3 4 4 5 6 7 7 8 8 8 9 10 10 10 10 10 9 11 12 13 14 15 15 13 13 14 14 14 14 14 15 15 16 17 18 18 18 19 20 22 22 23 24 23 23 23 21 21 22 22 22 23 22 28 33 26 17 16 19 21 22 23 22 21 23 24 26 27 29 30 30
2 1 1 2 2 3 3 3 4 4 4 3 3 2 1 1 2 2 2 3 4 5 6 7 8 9 9 10 11 11 11 11 10 10 12 13 14 14 14 14 13 12 13 13 13 14 14 15 15 16 16 17 17 18 19 20 21 21 21 21 21 23 23 22 21 21 20 20 22 21 25 31 25 17 17 19 19 22 23 22 22 23 25 27 28 30 30 30
2 2 3 3 3 4 5 5 6 6 6 5 4 3 2 1 1 1 2 3 4 5 7 8 9 10 10 10 11 10 11 11 10 11 13 14 14 14 13 14 13 12 12 13 14 14 14 15 15 16 16 16 17 18 19 20 20 19 19 21 22 24 25 23 19 19 19 20 22 22 25 30 25 19 19 19 20 23 25 25 24 25 25 25 26 26 26 26
4 3 3 3 4 5 6 6 6 5 5 5 5 4 3 3 3 3 4 4 5 7 8 9 10 11 10 10 10 10 10 10 11 13 13 13 13 13 14 14 14 13 12 13 13 14 14 15 15 15 16 16 16 17 18 19 18 17 19 22 23 24 25 23 20 19 19 21 24 25 27 29 26 22 20 21 23 24 25 25 24 23 22 22 22 23 24 24
4 4 3 3 5 6 6 7 7 6 5 5 4 4 4 5 5 5 6 5 6 8 10 10 11 11 9 9 10 10 11 12 13 13 13 13 13 13 13 13 13 13 13 13 13 14 14 15 16 16 16 15 14 15 16 17 18 19 21 24 24 24 25 23 21 21 21 23 26 27 28 29 28 25 22 23 25 25 23 23 23 22 21 21 21 21 21 21
5 3 2 2 4 5 6 7 7 7 8 7 7 7 6 6 6 7 7 7 8 10 11 11 11 11 10 11 12 12 12 12 13 13 13 13 12 13 12 12 12 12 13 13 14 14 14 16 16 16 14 12 13 15 17 18 20 21 22 24 25 25 25 23 22 22 23 26 27 27 29 31 32 29 25 25 27 24 21 21 23 22 21 21 20 20 19 19
4 2 1 2 3 5 6 6 7 7 8 8 9 9 8 8 8 9 9 9 11 12 13 13 13 14 14 13 13 12 12 12 13 13 13 13 13 12 11 11 11 12 12 13 15 14 14 17 15 13 12 12 13 15 17 19 19 21 22 24 25 27 25 22 22 25 25 26 28 28 30 33 35 33 30 29 27 23 18 20 24 23 22 22 22 21 19 18
2 1 1 2 3 5 6 7 7 7 8 8 9 9 9 10 10 10 11 12 13 14 14 15 15 15 14 13 12 12 11 11 12 12 12 13 12 11 10 10 11 12 12 13 15 15 16 16 11 9 12 14 14 16 18 19 20 21 22 23 26 27 25 23 24 26 24 26 31 32 33 36 36 35 32 29 25 21 20 21 22 23 23 23 23 21 19 18
2 1 2 2 3 5 6 8 8 8 8 8 9 9 9 11 11 12 14 14 13 14 16 16 17 16 13 11 10 10 11 11 11 11 12 12 12 11 11 11 12 13 13 14 15 16 17 15 10 11 15 16 16 18 18 19 21 22 22 24 26 27 27 25 25 26 26 29 33 35 38 38 36 35 31 26 25 23 22 21 19 22 24 24 24 22 20 18
2 3 3 3 3 5 6 8 9 9 8 9 9 9 10 11 12 14 16 16 15 15 15 15 14 12 9 8 7 8 10 10 10 11 12 12 11 11 12 12 13 13 13 14 15 17 17 15 14 16 17 17 18 19 19 20 21 22 23 25 26 27 26 26 27 26 28 30 33 37 41 42 38 34 28 25 27 23 19 20 19 21 24 23 23 23 22 20
3 4 4 4 4 5 7 8 10 9 9 10 10 10 11 12 13 15 17 18 17 14 12 10 7 6 5 6 7 8 9 10 11 11 12 12 11 12 13 13 14 14 14 15 16 18 18 17 18 17 16 17 18 19 20 20 21 23 24 26 27 26 24 27 28 28 30 30 32 35 40 44 35 27 29 28 24 21 18 20 21 20 21 20 20 22 23 22
5 6 6 5 6 6 8 9 10 11 11 11 10 11 12 13 14 16 18 19 17 12 7 5 4 4 4 5 7 8 10 10 10 11 11 11 12 13 13 13 14 15 15 15 17 21 19 17 16 16 17 19 20 22 22 21 23 24 25 26 27 26 25 27 27 28 30 25 25 25 24 29 22 20 34 30 19 20 20 20 21 19 19 18 17 19 20 22
7 8 7 7 7 8 9 10 11 12 13 12 11 12 12 13 15 16 18 18 13 7 3 3 4 4 5 6 8 10 11 10 10 11 12 12 13 13 13 14 16 16 17 17 19 21 19 16 17 19 21 23 24 25 24 22 23 24 26 27 27 28 28 28 27 26 24 20 24 22 14 20 26 30 36 25 16 21 19 19 23 21 19 16 16 17 18 21
9 9 9 9 10 11 10 11 11 13 13 13 12 12 12 13 14 16 16 11 6 4 4 4 6 6 7 7 9 11 12 12 13 13 12 12 12 13 15 16 16 17 18 18 20 20 19 19 22 23 25 26 27 27 25 23 23 25 28 28 28 30 28 29 29 25 27 30 32 30 21 21 31 36 32 19 13 16 17 21 26 25 22 18 18 19 20 23
10 10 10 11 12 12 12 12 12 13 13 13 13 12 12 13 14 15 11 4 3 6 5 5 6 7 7 8 10 13 13 14 14 12 12 14 15 16 17 17 17 19 19 20 23 23 22 23 24 25 27 28 27 26 24 24 25 26 29 29 29 30 28 29 28 26 30 30 29 32 22 13 22 27 21 12 11 12 15 23 28 27 23 22 22 22 24 27
11 11 12 13 14 14 14 13 13 13 13 13 12 12 12 13 13 13 7 1 4 7 6 6 7 7 8 11 13 14 14 15 14 15 16 16 16 16 17 18 19 20 20 22 25 25 24 24 24 26 27 28 26 25 26 26 26 26 28 29 29 29 29 28 28 28 25 18 23 34 21 9 14 14 8 8 15 17 21 26 31 29 23 25 29 28 28 30
13 14 14 15 15 15 15 14 14 13 12 12 12 12 12 12 11 9 2 2 6 8 6 6 8 9 12 14 15 15 16 16 15 16 16 15 15 16 18 19 19 20 20 23 26 25 24 23 24 25 26 26 26 25 25 25 25 26 27 28 29 28 28 26 25 22 13 9 18 24 13 9 7 3 4 13 21 26 30 30 28 24 23 29 35 35 33 32
16 16 16 17 16 16 15 14 13 12 12 12 12 12 12 11 9 4 0 5 9 7 5 7 10 14 17 18 17 17 16 15 14 14 13 13 14 15 17 18 19 22 23 23 24 24 23 23 23 23 23 23 23 22 22 23 24 25 24 25 24 20 17 15 14 9 3 6 13 12 5 8 10 5 10 18 21 24 25 23 23 25 28 32 33 34 35 34
15 15 15 15 15 14 13 12 12 11 11 12 12 12 11 9 6 3 3 8 8 6 9 13 15 17 18 19 18 15 13 12 12 11 12 14 14 15 17 17 18 20 21 21 24 26 26 22 17 17 19 19 18 19 22 24 24 23 22 20 13 8 7 6 5 3 4 8 12 11 5 7 14 16 17 15 15 17 17 20 26 29 30 28 28 30 32 33
12 12 11 11 11 10 10 10 10 11 11 11 11 11 9 5 3 4 7 8 8 10 14 17 18 19 18 16 14 11 12 13 12 12 15 16 16 16 15 14 15 13 16 22 26 25 24 18 12 12 13 12 16 24 26 25 24 24 23 17 7 1 3 4 4 4 6 11 16 14 7 7 11 12 12 11 10 13 17 21 25 24 23 22 24 27 28 29
10 9 8 8 8 8 9 9 10 10 11 11 10 8 7 5 4 7 9 10 11 14 16 18 20 18 15 12 9 11 15 15 14 16 17 16 18 16 12 12 15 14 16 20 20 19 19 16 9 8 10 15 22 26 23 23 25 26 24 18 13 11 7 5 4 4 6 11 18 16 7 6 7 7 9 9 8 11 13 14 15 17 18 19 20 22 23 24
7 7 7 7 7 7 8 9 10 10 9 9 8 7 7 6 6 9 10 12 14 15 16 18 18 16 12 10 9 13 17 17 16 17 16 17 17 13 12 15 16 15 16 15 15 18 20 19 14 13 20 27 26 19 16 19 20 20 20 17 17 18 15 11 12 14 11 8 13 18 15 14 14 13 15 14 11 11 11 13 15 16 18 19 19 20 20 21
6 6 7 7 7 8 8 9 9 8 8 7 8 8 7 7 7 9 11 13 15 17 18 18 15 13 11 11 13 16 18 17 18 18 17 17 13 9 13 16 14 14 16 16 15 15 18 25 28 28 30 30 24 17 17 18 17 17 19 19 19 22 21 16 15 17 11 4 8 15 19 20 16 15 18 17 15 16 19 24 24 23 23 23 23 24 26 27
6 6 7 8 8 9 9 9 8 7 7 8 8 8 8 8 9 10 11 13 15 17 18 17 14 12 12 14 16 17 18 17 18 18 18 15 9 9 14 12 11 17 20 18 16 12 16 30 38 36 31 27 25 25 25 21 17 19 20 22 22 21 20 13 6 6 4 3 6 9 16 19 13 13 20 23 25 28 30 30 27 25 25 26 28 32 33 34
6 7 8 9 9 9 8 8 7 7 7 8 8 7 8 8 8 9 11 14 14 15 16 14 12 12 13 16 17 17 18 18 18 19 18 13 9 11 12 9 11 19 21 19 17 15 16 24 35 37 31 29 31 31 26 19 17 20 22 24 22 16 15 12 6 4 4 4 5 9 18 19 15 19 27 30 32 34 34 34 33 33 33 32 31 30 30 30
8 9 9 9 8 8 8 7 7 7 7 7 7 6 6 7 8 10 12 13 14 14 14 13 11 11 13 15 16 17 17 17 18 19 15 11 10 11 10 10 15 21 22 19 17 18 16 14 26 36 34 34 34 27 23 23 24 25 22 20 19 15 14 14 12 10 8 5 6 10 12 11 13 19 24 27 31 34 38 41 40 38 36 34 31 28 28 28
9 9 9 8 8 8 8 7 7 6 6 6 6 6 7 8 9 10 12 12 13 13 12 12 12 12 13 14 15 16 17 18 19 17 11 9 11 10 9 13 21 23 21 20 19 22 19 11 20 35 38 35 29 23 25 28 23 17 15 16 17 16 16 17 18 18 11 4 4 5 6 9 16 21 24 28 31 32 35 37 36 35 34 34 35 35 34 34
8 8 8 8 8 8 7 6 5 5 5 5 5 6 7 8 8 10 11 11 13 12 10 11 11 12 13 13 15 17 19 20 18 11 7 9 10 10 12 18 23 24 23 25 24 21 16 12 21 33 36 32 28 27 28 21 10 11 17 21 21 19 16 12 10 13 13 10 9 8 8 14 23 25 25 27 26 25 28 31 33 35 36 37 38 39 40 39
8 7 7 6 6 5 4 4 4 4 4 4 5 5 7 8 8 9 9 10 11 10 10 11 12 12 12 14 16 18 20 20 13 6 6 9 10 13 16 19 22 23 25 27 24 20 17 16 20 27 29 29 29 28 24 14 8 15 26 30 25 18 13 9 8 14 20 22 21 15 9 12 20 23 21 21 23 26 30 33 35 38 39 39 39 39 39 38
6 4 4 3 3 3 2 2 2 2 3 4 5 6 7 7 8 9 9 10 10 9 10 11 11 11 13 16 17 17 20 17 8 5 9 10 11 15 19 21 22 24 26 24 20 19 16 11 16 26 30 32 29 21 16 13 16 26 32 29 22 17 18 19 19 20 21 22 19 11 6 7 12 16 19 23 27 31 34 36 37 38 39 39 38 37 37 36
3 2 2 2 4 3 2 1 1 2 3 5 6 7 7 8 8 9 9 9 9 10 11 11 10 12 15 16 16 16 17 14 8 10 13 10 13 18 20 23 24 25 25 21 16 18 16 11 16 21 21 25 25 17 16 24 31 34 28 21 20 23 25 23 21 18 13 13 12 6 6 13 17 22 28 31 32 34 35 35 35 35 36 37 36 36 36 36
2 2 2 3 5 4 2 2 3 3 5 6 7 7 7 7 8 9 9 10 10 11 11 10 12 15 16 16 16 15 15 14 14 14 13 12 16 20 21 23 25 24 20 15 16 19 18 16 16 11 5 8 12 12 20 32 38 36 29 26 28 30 26 22 18 13 8 12 17 15 15 24 28 28 31 32 32 33 32 33 34 34 35 36 36 35 35 36
2 2 3 4 5 4 3 4 6 5 5 6 7 7 6 7 8 10 10 10 11 11 10 12 14 15 16 17 17 16 16 16 16 15 14 16 20 21 22 23 23 19 14 15 18 19 17 16 15 12 9 10 15 21 25 27 30 33 33 33 34 31 29 25 19 14 13 17 24 21 19 26 29 29 32 33 32 32 32 34 37 38 37 37 38 38 38 39
3 3 4 4 5 4 4 6 7 7 6 6 6 6 7 8 10 10 10 10 10 10 11 12 14 15 17 18 18 18 19 18 16 15 16 20 21 20 21 21 19 15 16 19 21 19 19 18 17 17 16 17 21 25 23 18 21 27 30 32 32 31 31 27 20 18 16 13 17 20 20 24 29 30 32 33 32 33 36 38 40 41 41 40 41 43 44 45
4 5 5 5 5 5 6 7 7 7 7 6 6 7 8 9 10 11 11 11 11 10 11 12 14 16 18 19 19 19 20 19 17 17 18 20 20 20 20 19 16 17 20 21 21 21 20 18 19 23 24 24 22 18 14 14 18 23 26 28 28 27 28 26 21 19 16 13 19 26 27 26 29 30 30 31 33 37 40 42 43 44 43 43 46 47 48 49
6 6 6 6 6 6 6 7 7 7 7 7 7 8 9 11 13 13 12 11 11 11 12 13 14 16 17 17 18 18 19 20 20 20 20 19 19 20 21 17 15 18 20 21 22 22 20 19 22 25 29 29 20 12 13 18 21 24 24 24 24 25 24 22 20 19 20 23 28 30 29 30 30 29 31 33 35 39 43 43 42 42 43 46 49 50 48 46
7 7 7 7 7 7 8 8 9 8 8 8 8 9 10 13 14 13 12 12 12 13 14 14 14 14 15 15 15 16 17 17 18 19 20 19 19 20 20 17 16 18 19 21 23 21 21 22 23 25 32 30 19 14 21 25 27 27 22 19 20 21 20 20 21 22 24 29 32 31 32 33 32 32 36 38 40 43 43 42 42 43 46 49 50 49 47 44
7 7 7 7 8 8 9 9 9 9 9 9 9 10 11 12 13 13 13 13 14 14 14 14 13 13 14 14 14 15 15 15 16 16 17 17 18 19 18 17 17 18 20 23 23 23 24 24 24 27 30 28 22 22 28 31 30 23 14 13 16 17 18 21 21 22 26 32 34 33 32 35 37 39 42 43 44 43 43 44 48 49 49 49 49 48 46 44
6 6 7 7 8 8 9 9 9 8 9 9 10 10 10 11 11 13 13 13 13 14 14 13 13 14 14 14 15 15 16 16 16 15 15 15 16 17 17 15 15 17 21 23 24 25 25 26 28 26 24 28 28 27 32 33 22 11 8 13 17 17 20 23 22 25 29 30 31 33 36 40 42 42 42 43 45 45 47 51 53 52 50 49 47 46 45 45
Wind_Direction
108 113 114 119 125 121 114 102 93 80 73 71 71 98 112 101 99 102 108 114 119 135 173 198 223 235 242 248 254 260 264 263 262 262 260 261 266 269 274 271 265 264 267 272 280 283 284 284 282 281 279 277 277 278 279 278 276 273 273 273 273 275 278 281 282 282 284 285 285 287 288 286 285 285 282 278 275 273 270 268 268 269 272 278 282 283 283 282
134 143 149 154 148 144 137 120 94 62 50 51 53 132 167 166 114 116 115 119 131 153 191 208 221 227 230 232 237 248 257 259 259 261 264 266 266 269 275 276 272 269 269 274 281 283 282 282 281 280 279 278 278 280 280 278 276 274 274 274 276 279 281 283 282 282 284 284 284 285 284 282 282 283 281 277 274 271 268 267 267 270 274 280 283 282 281 281
151 161 178 189 181 180 178 166 94 15 7 358 331 268 232 254 264 267 269 251 217 214 226 232 235 234 232 232 238 248 254 258 259 263 268 269 268 270 271 271 270 269 271 276 281 284 285 284 282 279 278 278 279 279 278 278 278 276 273 275 281 284 284 284 282 283 283 283 283 282 280 278 279 280 279 278 275 271 270 269 270 273 274 277 281 281 281 280
159 170 196 209 210 209 212 232 281 315 318 305 284 265 257 257 266 271 273 270 252 242 243 245 246 246 245 244 244 248 253 258 261 265 270 270 270 271 272 272 271 273 276 281 284 285 285 284 282 280 279 278 278 278 277 278 277 275 274 278 285 286 284 284 283 282 282 282 283 281 280 279 280 279 279 280 277 275 275 275 275 275 276 277 279 279 279 278
175 199 228 227 227 229 238 257 280 290 287 273 259 251 245 244 255 263 270 270 260 251 248 248 251 255 256 253 251 251 256 265 267 268 270 271 273 274 275 277 277 279 281 283 285 284 283 283 281 280 278 278 278 278 277 277 275 275 277 281 284 285 285 285 283 282 281 282 282 282 281 280 281 280 281 281 277 278 283 281 278 278 278 278 278 278 277 276
219 252 247 232 231 239 249 262 275 276 266 251 245 246 245 239 243 250 259 264 261 256 252 255 258 262 263 260 258 256 259 268 270 270 274 277 279 279 279 280 280 282 283 284 284 284 283 282 280 279 277 277 276 276 276 275 274 275 278 281 284 285 286 287 285 284 285 284 284 284 283 282 284 284 283 280 278 283 288 284 282 282 281 280 279 278 278 277
256 265 240 212 217 243 262 269 273 273 272 263 252 253 261 258 251 252 258 263 267 268 267 266 265 265 266 263 260 260 262 266 271 276 279 281 281 281 278 278 279 281 283 285 285 285 284 282 280 279 278 278 277 276 276 275 274 275 279 282 284 284 285 286 285 286 286 286 287 286 285 286 288 289 287 283 285 291 290 287 286 285 283 281 279 277 277 276
255 248 229 253 303 287 278 278 280 281 278 273 266 258 257 264 270 270 271 275 279 279 278 276 273 271 268 264 263 265 268 271 277 280 281 280 281 280 279 279 281 284 286 287 287 286 284 282 281 280 280 280 280 280 279 278 277 278 282 285 284 284 285 285 285 286 286 287 288 287 287 290 292 291 289 290 297 301 297 293 289 286 282 280 280 278 277 276
226 219 256 309 316 303 289 288 294 289 282 274 268 262 257 261 270 274 277 282 284 283 283 280 277 276 271 267 268 271 275 279 280 280 279 280 281 282 283 284 285 286 288 288 288 288 286 284 282 281 281 282 282 283 283 282 282 283 286 286 286 286 286 286 287 287 287 289 289 289 291 292 292 290 292 304 313 305 297 291 287 285 284 284 284 282 279 277
203 218 279 308 314 308 301 304 310 307 299 289 275 267 261 259 264 268 273 279 281 281 281 278 277 275 271 268 272 276 279 280 278 279 281 283 285 285 286 286 286 287 288 289 290 289 287 285 284 283 284 284 285 286 287 287 287 288 288 287 288 288 288 289 290 291 291 293 293 292 292 292 292 290 299 322 317 299 292 289 289 289 288 289 286 283 281 278
209 237 293 303 303 301 302 307 311 311 307 304 292 276 264 257 258 262 269 273 275 276 276 275 274 271 269 270 274 275 275 275 276 279 282 287 288 287 288 288 288 288 289 290 289 288 286 284 284 286 287 288 290 292 292 291 290 291 291 291 292 291 292 293 293 295 294 295 295 294 293 292 291 293 309 326 309 297 296 294 294 292 290 289 286 284 282 280
221 259 302 303 302 305 308 304 302 303 301 297 289 280 270 262 260 261 264 267 270 273 273 272 270 268 269 272 271 271 274 274 276 278 280 285 290 292 291 289 289 290 291 290 288 288 287 286 288 290 291 291 293 294 293 293 292 293 294 294 295 295 295 296 296 297 296 296 297 297 295 293 297 306 320 320 305 302 300 298 298 294 293 291 289 288 286 284
232 277 317 317 322 325 321 309 301 301 296 289 286 282 278 273 268 266 264 267 271 271 270 268 268 270 271 271 270 272 276 277 276 274 277 286 291 293 293 291 291 292 293 291 290 290 289 290 292 291 292 291 292 293 292 293 292 293 294 294 297 299 299 301 302 301 300 299 299 299 296 299 312 326 329 317 308 307 304 304 303 298 297 295 293 291 288 286
227 280 353 2 4 6 356 355 11 14 357 340 331 310 298 291 284 278 272 271 271 268 269 272 273 273 272 272 272 274 278 277 271 271 283 292 293 294 295 295 296 295 293 291 292 292 291 292 292 291 291 291 292 292 292 293 293 294 295 295 298 299 302 309 308 304 305 302 300 299 295 304 323 338 331 319 312 310 308 308 306 301 298 294 291 289 288 287
189 106 70 63 57 53 48 51 55 52 47 46 47 40 16 336 320 307 292 282 280 280 281 282 279 277 276 275 274 277 279 274 268 276 290 297 298 299 298 298 299 297 294 294 296 295 295 295 295 294 293 294 294 293 294 294 294 295 295 297 300 299 303 310 308 306 310 305 301 299 295 306 326 341 330 321 318 315 311 311 308 300 295 293 293 292 292 292
153 121 99 79 72 65 54 54 56 57 53 51 52 47 40 11 340 312 306 303 299 296 292 289 283 281 280 277 277 280 279 274 272 283 294 298 300 301 299 299 300 298 296 298 298 297 298 298 297 297 296 296 294 293 295 293 293 296 294 297 301 301 305 311 311 312 313 305 300 298 296 305 323 337 331 324 323 318 314 312 307 301 300 301 302 300 299 299
142 126 102 78 68 55 46 44 40 43 45 42 40 32 21 1 344 327 318 306 298 296 292 291 288 285 282 278 281 282 279 278 283 291 296 298 299 299 299 300 300 300 299 300 300 301 300 299 299 298 297 296 294 294 292 292 295 297 295 297 301 302 303 306 312 315 311 303 300 297 296 304 317 328 330 327 323 319 314 310 307 308 312 312 308 306 305 305
139 128 104 74 56 45 38 31 22 19 18 13 6 1 354 348 343 336 329 310 299 297 294 294 290 289 284 279 283 284 283 285 290 296 297 298 298 297 298 299 299 301 303 304 304 303 302 301 299 298 298 297 295 289 281 287 297 297 296 298 301 304 302 304 312 314 308 302 299 297 298 305 313 321 327 327 323 318 313 308 309 316 319 317 313 310 311 311
140 130 107 60 40 29 19 13 8 5 2 357 348 343 338 335 332 330 326 312 306 305 303 301 295 291 285 283 285 285 287 288 291 295 296 297 296 296 298 296 297 300 303 306 303 301 299 296 297 299 301 294 285 281 279 287 294 295 296 296 298 302 304 310 315 311 305 301 299 299 302 306 310 317 325 325 321 318 313 307 309 315 317 319 317 313 314 315
147 139 115 21 15 4 357 351 348 348 349 348 343 338 332 328 326 323 317 310 309 307 304 302 298 294 288 284 284 284 287 287 289 292 294 296 296 297 298 296 299 300 302 304 298 298 295 292 299 303 297 288 282 284 288 292 293 295 297 297 297 297 302 315 314 307 306 302 301 303 304 305 309 315 321 323 320 317 316 311 308 311 313 316 317 313 312 314
165 177 283 343 354 350 346 340 338 334 333 331 330 329 325 323 323 319 313 310 308 304 302 300 297 293 289 284 281 283 287 287 290 293 294 297 298 299 297 297 301 299 299 298 294 295 292 293 304 301 290 293 293 291 293 295 295 295 295 296 297 295 301 313 308 304 306 301 302 304 302 304 309 314 319 322 321 320 321 317 306 305 311 314 315 311 308 313
206 248 290 327 343 344 342 338 337 333 326 319 317 320 319 319 320 317 313 310 307 305 302 298 293 288 287 285 281 282 286 289 293 295 296 297 298 299 297 297 296 295 295 292 293 294 293 299 312 302 296 298 297 294 294 293 293 293 293 293 295 298 303 306 303 302 303 300 302 304 301 303 310 314 318 324 325 326 327 321 305 302 313 317 316 310 304 308
239 271 290 310 328 331 335 337 340 340 332 325 324 324 320 320 320 319 316 312 311 309 303 297 292 285 284 285 286 288 290 295 295 295 297 296 295 294 294 295 293 293 294 292 293 291 292 305 309 302 300 298 295 293 292 291 293 294 293 291 294 301 303 300 300 300 299 299 301 303 300 301 307 310 317 328 328 326 328 326 323 318 318 315 309 302 294 292
266 278 284 294 305 315 326 335 340 346 342 336 339 338 331 328 326 324 320 315 316 316 309 303 298 292 295 293 294 297 297 300 298 297 300 296 294 293 292 294 294 294 295 294 292 289 293 303 302 299 299 297 296 295 294 293 295 295 294 294 297 301 298 295 298 297 297 297 298 304 304 302 305 308 316 328 325 324 334 335 336 329 316 307 300 296 291 288
274 276 281 286 291 304 318 328 336 344 342 339 344 342 338 336 331 328 323 318 318 321 318 320 328 324 322 313 305 305 305 305 302 303 303 297 294 293 293 295 295 298 298 296 293 291 296 302 298 298 300 299 298 297 298 297 296 296 295 297 298 299 296 295 297 297 299 296 295 308 312 305 300 295 311 323 319 322 338 334 329 325 314 306 301 298 293 290
269 273 279 279 284 297 310 321 330 337 337 337 341 338 335 336 332 329 325 318 319 334 343 348 353 342 331 328 319 314 313 310 306 306 303 297 295 295 295 297 297 298 298 297 295 294 299 304 301 301 302 300 297 298 302 300 295 292 295 299 298 296 295 295 295 294 296 290 290 298 295 292 289 291 308 320 314 316 325 322 318 315 313 310 304 298 292 290
266 272 277 276 281 291 302 315 323 330 332 334 337 332 330 331 329 330 329 322 326 354 347 333 344 340 330 332 327 322 320 313 308 306 305 303 302 299 298 299 299 297 298 297 294 295 302 306 305 304 302 299 299 302 304 300 291 288 295 298 294 294 293 293 292 290 291 290 290 289 278 277 285 296 313 318 304 306 306 307 307 301 303 306 303 295 286 285
270 275 276 275 279 287 297 308 316 324 327 328 330 327 326 326 325 329 332 338 342 341 342 337 338 337 333 335 331 325 321 315 309 305 306 305 304 302 300 301 301 299 299 294 290 297 304 304 304 303 300 300 303 305 302 296 290 289 295 295 292 294 291 290 292 290 292 295 292 287 277 259 278 298 322 315 285 293 295 300 298 292 295 299 297 290 281 281
276 277 277 274 277 284 293 302 311 318 321 322 325 323 322 321 323 327 326 280 336 337 339 334 330 330 329 328 325 321 317 314 307 303 304 303 304 305 303 305 304 301 302 296 295 303 305 303 304 302 300 302 303 303 300 297 293 291 294 293 292 292 289 292 292 289 291 290 284 286 276 238 279 307 349 311 291 295 295 296 294 291 296 302 298 289 279 278
279 279 277 275 277 283 291 299 307 312 315 319 320 319 319 320 322 333 331 264 328 334 330 330 331 327 323 320 318 317 315 311 305 304 304 304 308 312 312 311 309 306 307 302 303 308 307 305 307 304 303 305 304 304 302 298 296 295 295 292 291 291 292 293 288 285 292 276 277 291 279 227 267 12 22 311 307 302 297 294 292 294 299 299 295 290 286 284
283 281 278 277 278 283 291 297 303 309 312 313 315 315 317 319 318 326 206 309 326 332 324 327 326 323 323 322 322 321 317 314 313 313 314 318 322 327 325 322 319 315 313 310 310 313 311 310 310 309 309 309 308 309 310 308 305 302 297 293 293 296 297 292 282 272 262 264 279 303 303 217 224 252 298 305 303 299 300 300 302 305 300 293 291 294 299 300
285 283 280 279 280 285 291 296 301 305 307 307 310 311 315 321 311 268 284 316 322 321 321 321 320 324 327 327 328 329 330 332 336 336 336 335 336 338 334 332 331 321 313 317 321 318 316 315 315 314 313 316 322 326 324 319 314 309 302 295 293 307 312 287 271 243 223 263 286 300 307 237 234 252 275 288 289 295 310 314 310 305 299 297 298 301 305 307
289 287 287 286 287 290 292 297 300 302 303 303 305 307 310 316 293 277 302 314 309 313 319 320 322 327 331 332 336 343 347 346 346 343 339 337 339 343 342 347 350 336 318 323 327 323 321 324 332 326 318 324 331 327 321 315 312 308 302 295 277 266 324 280 270 290 271 278 292 295 293 267 248 239 252 273 295 309 314 309 304 302 304 309 309 306 305 303
297 296 296 296 297 296 296 299 301 301 303 301 302 303 297 286 283 295 306 310 308 313 318 321 324 330 338 346 348 349 349 344 340 340 342 343 344 348 1 9 4 355 341 334 332 328 321 320 335 336 318 319 320 317 313 308 306 302 299 292 272 262 267 259 256 272 279 289 293 291 280 268 263 223 232 267 301 310 307 300 296 300 307 311 311 308 305 304
302 303 305 304 301 301 302 303 303 305 305 301 300 296 285 280 291 302 310 314 315 317 320 324 328 334 348 357 347 343 346 342 337 340 346 348 347 356 14 10 4 3 360 349 337 330 317 309 315 317 314 317 320 319 315 311 306 301 299 290 277 278 275 264 267 270 275 296 288 275 270 277 280 261 253 266 284 291 298 299 299 300 301 305 308 308 311 314
303 307 309 308 307 307 308 307 307 306 303 301 298 294 290 291 298 306 313 316 318 321 324 329 334 338 348 348 339 340 344 343 340 342 348 351 353 6 4 1 5 7 4 353 341 333 315 306 308 312 316 321 324 324 322 318 305 294 295 291 289 293 286 272 276 279 275 283 271 263 268 277 278 265 258 259 262 272 289 299 302 301 299 302 306 310 315 319
307 311 310 309 308 309 308 307 306 302 300 299 297 297 298 297 300 308 313 315 319 323 327 334 339 340 340 336 337 342 343 344 345 346 352 358 1 0 353 354 359 354 352 349 343 336 315 306 307 312 318 320 321 321 323 324 312 299 298 301 301 298 287 277 279 294 285 266 264 260 270 277 275 272 274 274 275 282 293 302 305 302 300 302 303 306 308 308
314 312 308 306 307 308 306 303 299 297 295 297 300 303 300 298 302 309 313 315 318 322 329 337 339 335 335 336 338 342 342 346 351 351 354 360 2 355 349 341 339 339 340 340 337 333 323 307 305 310 314 315 318 322 328 335 329 316 308 303 300 293 287 283 279 303 303 281 273 273 279 282 278 280 287 291 295 299 304 307 309 308 307 306 303 299 296 296
309 306 304 305 307 305 303 299 295 295 295 298 305 303 293 294 302 307 310 313 318 325 332 339 339 334 336 338 338 340 344 350 353 350 351 357 356 350 342 327 326 328 328 331 331 328 324 302 298 308 311 312 317 325 333 334 328 322 317 310 305 298 294 291 286 288 282 273 284 281 278 279 276 284 295 302 306 307 306 305 307 310 312 313 311 305 300 298
305 305 305 304 304 300 298 297 294 294 295 295 296 286 283 292 299 304 309 314 323 332 338 340 340 339 339 342 343 342 346 350 350 349 355 3 357 347 328 315 319 321 320 323 323 320 319 290 284 303 310 312 316 326 328 325 327 334 337 334 328 318 312 304 291 287 281 278 302 294 284 284 287 294 298 299 301 304 305 305 307 311 315 318 318 316 314 311
306 308 306 303 302 298 296 294 289 286 284 280 281 277 283 293 298 305 313 322 330 337 343 342 340 341 343 349 350 344 342 345 349 354 4 2 352 333 313 310 317 318 316 320 321 318 314 289 282 297 308 313 316 320 321 318 331 358 344 334 331 324 319 313 291 290 299 301 294 288 290 288 287 289 288 289 296 306 311 311 312 314 316 318 319 319 319 318
311 311 308 305 305 303 300 291 279 280 276 272 279 281 287 297 306 318 326 333 337 339 340 339 340 346 350 351 349 342 338 342 351 5 357 346 333 316 309 312 316 316 317 321 321 315 309 296 289 296 303 309 310 314 317 309 304 326 326 325 325 320 316 311 294 299 303 298 291 285 279 277 277 277 280 289 301 311 316 316 315 316 317 317 319 320 319 320
316 319 320 323 328 326 316 296 283 284 278 279 290 295 304 317 327 337 340 341 343 341 337 340 345 352 351 347 345 341 338 342 354 353 339 333 321 312 310 315 317 318 321 323 320 318 318 307 301 305 307 312 318 319 309 292 299 316 319 320 318 309 307 307 300 297 292 288 289 285 264 272 282 286 290 296 304 311 314 315 315 316 317 317 319 319 320 320
324 329 338 350 352 345 335 320 307 299 299 302 307 313 326 338 343 346 347 348 348 343 342 348 352 348 344 343 344 342 340 342 339 331 332 329 318 313 314 320 322 324 329 332 332 331 331 320 312 314 317 324 333 336 316 312 320 324 321 317 314 311 311 310 306 300 283 273 284 283 276 293 301 301 298 298 303 308 311 313 315 316 316 316 316 317 319 320
334 334 337 342 342 335 317 325 326 318 319 322 323 330 342 349 349 348 350 352 350 347 350 352 346 342 341 341 342 340 339 340 333 329 329 324 317 317 323 325 327 332 338 339 336 332 329 322 316 314 307 315 319 311 310 316 318 316 311 309 313 316 315 315 312 300 273 279 291 288 283 290 295 299 300 302 306 308 309 312 314 315 315 313 313 314 318 320
344 336 334 332 333 325 304 320 332 334 338 339 339 347 356 355 352 351 352 352 350 348 350 345 340 339 338 338 339 339 339 339 334 328 324 322 322 327 331 331 333 342 345 339 339 339 336 331 322 308 284 275 282 287 298 305 301 299 300 302 307 311 310 314 313 296 285 292 294 291 285 290 298 304 305 307 309 310 312 313 313 314 314 313 313 314 317 320
350 342 336 332 337 336 326 332 345 351 354 358 0 2 359 355 354 351 346 347 349 349 348 343 339 340 339 340 342 341 339 340 338 334 330 331 334 337 337 339 343 348 346 344 347 344 336 333 327 316 301 292 296 299 299 296 287 289 293 296 302 305 305 307 306 300 302 292 287 300 306 301 305 308 307 308 310 312 314 315 314 314 312 311 312 313 316 318
356 351 349 348 347 349 348 352 1 5 6 13 15 6 355 348 350 349 344 346 352 353 351 347 343 343 343 344 344 342 342 344 347 347 344 343 347 347 346 348 348 347 346 346 344 340 337 336 329 322 316 315 314 311 306 297 289 291 295 298 301 301 300 302 302 306 313 298 296 312 315 308 307 309 308 308 308 310 312 313 313 313 312 313 314 314 315 315
6 3 3 3 359 2 8 11 11 11 13 16 11 1 350 341 344 350 350 352 358 357 354 353 351 349 349 350 349 348 349 350 350 353 352 352 354 352 350 350 345 343 344 341 339 342 342 338 333 327 325 327 328 323 320 315 307 305 304 299 298 296 295 299 300 305 309 305 311 318 315 311 312 310 308 307 306 307 309 311 313 313 314 314 314 314 313 312
18 16 15 13 11 13 17 15 12 12 12 9 1 352 344 340 344 350 355 359 2 1 1 2 1 358 359 1 359 356 359 357 352 353 353 354 355 353 349 346 343 340 340 339 339 343 342 337 336 332 327 329 334 327 322 323 321 317 308 293 290 290 292 299 303 309 313 312 317 319 313 313 315 311 309 308 306 306 309 312 315 315 315 314 313 314 315 315
24 21 19 19 18 18 17 14 11 9 4 358 350 344 342 344 347 351 358 5 6 7 10 13 13 12 10 10 8 5 6 5 358 356 355 353 355 354 346 343 344 340 338 339 338 339 339 336 338 336 327 326 331 325 324 328 326 319 303 289 291 290 295 304 307 314 322 321 320 319 315 313 313 312 311 309 307 308 312 315 316 316 316 315 314 315 317 318
21 20 19 18 18 19 14 9 8 2 356 350 346 346 350 354 354 358 5 10 12 14 19 21 21 19 14 13 13 11 9 7 2 359 357 354 354 354 348 343 343 340 338 338 336 336 338 335 338 339 326 322 329 327 326 331 329 318 309 307 306 303 304 308 307 312 320 321 318 316 314 311 309 309 308 307 308 312 314 315 317 317 316 316 317 318 318 318
Height
3123 3124 3124 3125 3125 3126 3127 3127 3127 3128 3128 3128 3129 3130 3130 3130 3130 3131 3131 3131 3132 3132 3133 3133 3134 3134 3134 3135 3135 3135 3135 3135 3135 3135 3135 3135 3135 3135 3135 3135 3135 3135 3135 3135 3135 3135 3135 3134 3134 3134 3134 3134 3133 3133 3132 3131 3131 3131 3130 3128 3126 3126 3126 3126 3126 3125 3124 3124 3123 3122 3122 3121 3121 3120 3119 3119 3119 3119 3118 3118 3118 3117 3117 3117 3116 3116 3115 3115
3124 3125 3125 3126 3126 3127 3127 3128 3128 3128 3128 3128 3129 3130 3130 3130 3130 3131 3131 3131 3132 3132 3133 3133 3134 3134 3134 3134 3134 3134 3134 3135 3135 3135 3135 3135 3135 3135 3134 3134 3134 3134 3134 3134 3134 3134 3134 3133 3133 3133 3133 3132 3132 3131 3130 3129 3129 3129 3128 3126 3124 3125 3125 3125 3124 3124 3123 3122 3121 3120 3119 3119 3119 3118 3117 3116 3116 3116 3115 3116 3115 3115 3116 3115 3113 3113 3112 3112
3125 3126 3126 3127 3127 3127 3128 3128 3128 3128 3128 3129 3129 3129 3130 3130 3130 3130 3131 3131 3132 3132 3133 3133 3133 3133 3134 3134 3134 3134 3134 3134 3134 3134 3134 3134 3134 3133 3133 3133 3133 3133 3133 3133 3132 3132 3132 3132 3131 3131 3131 3131 3130 3130 3129 3128 3127 3127 3125 3123 3123 3123 3123 3123 3122 3122 3121 3120 3119 3118 3117 3117 3117 3116 3115 3114 3113 3113 3112 3113 3113 3112 3113 3112 3110 3110 3109 3109
3126 3126 3127 3127 3127 3127 3128 3128 3128 3128 3128 3128 3129 3129 3129 3130 3130 3130 3130 3131 3131 3132 3132 3133 3133 3133 3133 3133 3133 3133 3133 3134 3133 3133 3133 3133 3132 3132 3132 3132 3132 3132 3131 3131 3131 3130 3130 3130 3129 3129 3129 3128 3128 3128 3127 3126 3125 3124 3123 3122 3122 3122 3121 3121 3120 3119 3119 3117 3117 3116 3115 3114 3114 3113 3112 3112 3110 3109 3110 3111 3110 3109 3109 3109 3108 3107 3106 3105
3126 3126 3127 3127 3127 3127 3127 3128 3128 3128 3128 3128 3129 3129 3129 3129 3130 3130 3130 3130 3130 3131 3132 3132 3132 3132 3132 3132 3133 3132 3133 3133 3132 3132 3132 3131 3131 3131 3130 3130 3130 3130 3130 3129 3129 3129 3128 3128 3128 3127 3127 3126 3126 3125 3125 3124 3123 3122 3121 3120 3120 3119 3118 3119 3118 3117 3116 3115 3114 3113 3112 3112 3111 3110 3109 3109 3106 3105 3108 3109 3107 3106 3105 3105 3104 3103 3102 3102
3125 3126 3126 3127 3127 3127 3127 3127 3127 3128 3128 3128 3128 3129 3129 3129 3129 3129 3129 3129 3130 3130 3131 3131 3131 3131 3131 3131 3132 3132 3132 3131 3131 3131 3131 3130 3130 3130 3129 3129 3128 3128 3128 3128 3127 3127 3126 3126 3125 3125 3125 3124 3124 3123 3123 3122 3121 3119 3119 3119 3118 3117 3116 3116 3116 3115 3114 3113 3112 3111 3109 3109 3108 3107 3106 3104 3102 3104 3106 3105 3103 3102 3101 3101 3100 3099 3098 3098
3125 3125 3126 3126 3126 3126 3127 3127 3127 3127 3127 3128 3128 3128 3128 3128 3128 3128 3128 3129 3129 3130 3130 3130 3130 3131 3131 3131 3131 3130 3131 3130 3130 3129 3129 3129 3129 3129 3128 3128 3127 3127 3126 3126 3126 3125 3125 3124 3124 3123 3123 3122 3122 3122 3121 3120 3119 3118 3117 3117 3117 3116 3114 3114 3113 3112 3111 3110 3109 3108 3106 3106 3105 3103 3101 3099 3100 3102 3102 3101 3099 3098 3097 3096 3096 3095 3095 3094
3125 3125 3126 3126 3126 3126 3126 3127 3127 3127 3127 3127 3127 3128 3128 3128 3128 3128 3128 3128 3129 3129 3130 3130 3130 3130 3130 3129 3129 3129 3129 3129 3128 3128 3128 3128 3128 3127 3127 3127 3126 3126 3125 3125 3124 3123 3123 3122 3122 3121 3121 3121 3120 3120 3119 3118 3117 3116 3115 3115 3114 3114 3112 3112 3111 3110 3109 3107 3107 3104 3103 3104 3103 3100 3096 3095 3098 3098 3097 3096 3095 3093 3092 3092 3092 3092 3091 3091
3125 3125 3126 3126 3126 3126 3126 3126 3126 3126 3126 3126 3126 3126 3127 3127 3127 3127 3127 3128 3128 3129 3129 3129 3129 3129 3129 3128 3128 3128 3128 3128 3127 3127 3127 3127 3127 3126 3126 3125 3125 3124 3124 3123 3123 3122 3121 3121 3120 3120 3119 3119 3118 3118 3117 3116 3115 3114 3113 3113 3112 3111 3110 3109 3108 3108 3106 3105 3104 3101 3100 3101 3100 3097 3092 3093 3096 3094 3093 3092 3090 3089 3088 3089 3088 3088 3087 3087
3125 3125 3126 3126 3126 3125 3125 3125 3125 3125 3125 3125 3125 3125 3126 3126 3126 3127 3127 3127 3128 3128 3128 3128 3128 3128 3128 3127 3127 3127 3127 3127 3127 3126 3126 3126 3125 3125 3125 3124 3124 3123 3123 3122 3121 3121 3120 3120 3119 3119 3118 3117 3116 3116 3115 3114 3113 3112 3111 3110 3110 3109 3108 3107 3106 3105 3104 3103 3101 3098 3097 3097 3098 3095 3090 3091 3092 3089 3088 3088 3087 3086 3085 3085 3084 3084 3083 3082
3125 3125 3125 3125 3125 3125 3125 3125 3124 3124 3124 3124 3124 3124 3125 3125 3126 3126 3126 3127 3127 3127 3127 3127 3127 3127 3127 3127 3126 3126 3126 3126 3126 3125 3125 3124 3124 3124 3124 3123 3123 3122 3121 3121 3120 3119 3119 3118 3118 3117 3116 3115 3115 3114 3113 3112 3111 3110 3109 3108 3108 3106 3105 3104 3103 3103 3101 3100 3099 3095 3093 3093 3095 3092 3088 3089 3088 3085 3085 3085 3084 3083 3082 3082 3081 3080 3079 3079
3125 3125 3125 3125 3125 3125 3125 3125 3124 3124 3124 3124 3124 3124 3124 3124 3125 3125 3125 3126 3126 3126 3127 3127 3126 3126 3126 3126 3125 3125 3125 3125 3125 3124 3124 3123 3123 3122 3122 3122 3121 3120 3120 3119 3118 3118 3117 3117 3116 3115 3115 3114 3113 3113 3111 3110 3109 3108 3107 3105 3105 3104 3103 3102 3101 3100 3099 3098 3096 3093 3088 3088 3091 3089 3086 3086 3084 3083 3082 3082 3082 3080 3079 3078 3077 3077 3076 3075
3125 3125 3125 3125 3125 3125 3124 3124 3124 3124 3123 3123 3123 3123 3123 3124 3124 3124 3125 3125 3125 3125 3125 3125 3125 3125 3125 3125 3124 3124 3124 3124 3123 3123 3122 3122 3122 3121 3121 3120 3120 3119 3118 3118 3117 3116 3116 3115 3115 3114 3113 3112 3112 3111 3110 3109 3107 3107 3106 3103 3102 3102 3100 3100 3099 3098 3097 3096 3094 3093 3086 3082 3086 3086 3084 3083 3081 3080 3080 3080 3079 3078 3076 3075 3074 3073 3072 3072
3125 3125 3125 3125 3124 3124 3124 3124 3123 3123 3123 3123 3123 3123 3123 3123 3123 3124 3124 3124 3124 3125 3125 3124 3124 3124 3124 3124 3124 3123 3123 3123 3122 3122 3121 3121 3120 3120 3119 3118 3118 3117 3116 3116 3115 3115 3114 3114 3113 3112 3112 3111 3110 3109 3108 3107 3106 3105 3104 3102 3101 3099 3097 3097 3097 3095 3095 3094 3092 3091 3086 3080 3082 3084 3082 3081 3080 3078 3078 3077 3077 3075 3074 3073 3071 3070 3068 3068
3125 3125 3125 3125 3125 3125 3124 3124 3123 3123 3123 3123 3123 3123 3123 3123 3123 3124 3124 3124 3124 3124 3124 3124 3123 3123 3123 3123 3123 3122 3122 3121 3121 3121 3120 3120 3119 3118 3118 3117 3117 3116 3115 3114 3114 3113 3113 3112 3111 3110 3110 3109 3108 3107 3106 3105 3104 3103 3102 3100 3099 3098 3096 3095 3095 3093 3093 3092 3089 3089 3085 3078 3079 3081 3080 3079 3078 3077 3075 3075 3074 3073 3071 3070 3068 3067 3065 3065
3125 3125 3125 3125 3125 3125 3125 3124 3124 3124 3123 3123 3123 3123 3123 3123 3123 3123 3123 3123 3123 3123 3123 3123 3123 3122 3122 3122 3122 3121 3121 3120 3120 3120 3119 3118 3118 3117 3116 3115 3115 3115 3114 3113 3112 3112 3111 3110 3110 3109 3108 3107 3107 3106 3105 3103 3102 3101 3100 3098 3097 3096 3094 3093 3093 3092 3091 3089 3087 3087 3083 3077 3077 3078 3078 3078 3077 3075 3073 3072 3071 3070 3069 3067 3066 3064 3063 3062
3125 3125 3125 3125 3125 3125 3125 3124 3124 3124 3124 3124 3123 3123 3123 3123 3123 3122 3122 3122 3122 3122 3122 3122 3122 3122 3121 3121 3120 3120 3119 3119 3118 3118 3118 3117 3116 3116 3115 3114 3113 3113 3112 3112 3111 3110 3110 3109 3108 3107 3107 3106 3105 3105 3103 3101 3100 3100 3099 3097 3095 3094 3093 3091 3091 3090 3089 3087 3085 3084 3081 3076 3075 3076 3076 3076 3075 3073 3071 3069 3068 3067 3066 3065 3063 3062 3060 3059
3125 3125 3125 3125 3125 3125 3125 3124 3124 3124 3124 3123 3123 3123 3123 3122 3122 3122 3122 3122 3122 3122 3122 3122 3121 3121 3120 3119 3119 3119 3118 3118 3117 3117 3116 3116 3115 3115 3114 3113 3112 3111 3111 3110 3109 3109 3108 3107 3106 3106 3105 3105 3104 3103 3102 3100 3099 3098 3097 3095 3094 3092 3090 3090 3089 3088 3087 3085 3082 3081 3079 3074 3073 3074 3074 3074 3073 3071 3069 3068 3066 3065 3064 3062 3061 3059 3058 3057
3125 3125 3125 3125 3125 3125 3125 3124 3124 3124 3123 3123 3123 3122 3122 3122 3122 3122 3122 3122 3122 3121 3121 3121 3120 3120 3119 3118 3118 3118 3117 3116 3116 3115 3115 3114 3114 3113 3113 3112 3111 3110 3109 3109 3108 3108 3107 3106 3105 3104 3104 3103 3102 3101 3100 3099 3098 3096 3095 3094 3092 3090 3088 3087 3088 3087 3085 3083 3080 3079 3077 3072 3070 3071 3072 3071 3070 3068 3067 3066 3064 3063 3061 3060 3059 3057 3056 3055
3125 3125 3125 3125 3125 3125 3125 3125 3124 3124 3123 3123 3123 3122 3122 3122 3122 3121 3121 3121 3121 3120 3120 3119 3119 3118 3118 3117 3117 3116 3116 3115 3115 3114 3114 3113 3113 3112 3112 3111 3110 3109 3108 3108 3107 3107 3106 3105 3103 3103 3102 3101 3100 3099 3098 3097 3096 3095 3094 3092 3091 3089 3086 3086 3086 3084 3083 3080 3077 3076 3074 3071 3068 3068 3069 3069 3068 3066 3065 3064 3062 3061 3059 3058 3057 3055 3054 3053
3125 3125 3125 3125 3125 3125 3125 3125 3124 3124 3123 3123 3123 3122 3122 3121 3121 3121 3120 3120 3119 3119 3118 3118 3117 3116 3116 3115 3115 3114 3114 3114 3114 3113 3113 3112 3112 3111 3110 3110 3109 3108 3108 3107 3106 3105 3105 3103 3102 3101 3100 3099 3099 3098 3096 3095 3094 3093 3092 3090 3089 3087 3085 3085 3084 3081 3080 3077 3074 3073 3071 3068 3067 3066 3066 3066 3066 3064 3063 3062 3060 3059 3058 3056 3055 3054 3052 3052
3125 3125 3125 3125 3125 3125 3125 3125 3124 3124 3123 3123 3123 3122 3122 3121 3120 3120 3119 3118 3118 3118 3117 3116 3115 3114 3114 3113 3113 3113 3113 3113 3112 3112 3112 3111 3110 3110 3109 3108 3108 3107 3107 3106 3105 3104 3102 3101 3100 3100 3099 3098 3097 3096 3095 3094 3092 3091 3090 3089 3086 3085 3083 3082 3081 3079 3078 3075 3071 3069 3066 3064 3064 3063 3063 3063 3063 3062 3061 3060 3058 3057 3056 3055 3054 3052 3050 3049
3125 3125 3125 3125 3125 3125 3125 3125 3124 3124 3123 3123 3122 3122 3121 3120 3119 3119 3117 3117 3116 3116 3115 3113 3113 3112 3112 3112 3112 3112 3112 3112 3111 3111 3110 3110 3109 3109 3108 3107 3107 3106 3105 3104 3103 3102 3100 3099 3099 3098 3097 3096 3095 3094 3093 3092 3091 3089 3088 3087 3084 3083 3082 3079 3078 3077 3076 3073 3069 3065 3060 3058 3061 3061 3061 3062 3060 3059 3059 3058 3058 3056 3054 3052 3049 3047 3044 3043
3125 3125 3125 3125 3125 3125 3125 3125 3124 3123 3123 3122 3121 3121 3120 3119 3119 3118 3116 3115 3114 3114 3113 3112 3111 3111 3111 3111 3111 3111 3111 3111 3110 3110 3109 3108 3108 3108 3107 3106 3105 3104 3104 3103 3102 3100 3099 3098 3097 3096 3095 3094 3093 3092 3091 3090 3089 3087 3086 3084 3082 3082 3081 3077 3076 3074 3072 3071 3069 3065 3054 3048 3053 3057 3057 3059 3057 3056 3057 3056 3055 3052 3048 3046 3045 3042 3041 3039
3125 3125 3125 3124 3124 3125 3125 3124 3124 3123 3122 3121 3121 3120 3120 3119 3118 3117 3116 3114 3113 3112 3112 3111 3111 3111 3111 3111 3111 3110 3110 3110 3109 3109 3108 3107 3107 3106 3106 3105 3104 3103 3102 3101 3100 3098 3097 3097 3095 3094 3093 3092 3091 3090 3089 3088 3086 3085 3083 3082 3080 3079 3078 3076 3074 3071 3068 3067 3066 3068 3058 3042 3043 3051 3054 3055 3054 3054 3055 3052 3049 3047 3045 3043 3042 3040 3039 3037
3124 3124 3124 3124 3124 3124 3124 3124 3123 3122 3121 3121 3120 3120 3119 3118 3118 3117 3115 3113 3112 3111 3111 3111 3111 3110 3111 3110 3110 3110 3109 3109 3108 3108 3107 3107 3106 3105 3104 3104 3103 3102 3101 3100 3098 3096 3095 3095 3094 3093 3091 3090 3089 3087 3087 3086 3084 3081 3080 3080 3078 3076 3075 3073 3072 3070 3067 3063 3062 3068 3066 3048 3036 3042 3049 3052 3051 3052 3050 3047 3045 3044 3043 3041 3039 3038 3036 3035
3124 3124 3124 3124 3124 3124 3124 3123 3122 3121 3121 3120 3120 3120 3119 3118 3117 3116 3115 3113 3111 3111 3111 3111 3110 3110 3110 3110 3110 3109 3108 3108 3107 3107 3106 3106 3105 3104 3103 3102 3102 3100 3099 3098 3096 3094 3094 3093 3092 3090 3089 3087 3086 3085 3085 3084 3082 3079 3077 3077 3075 3074 3073 3071 3070 3069 3065 3061 3057 3061 3066 3055 3038 3037 3045 3046 3046 3046 3044 3042 3041 3040 3039 3038 3037 3035 3033 3031
3123 3123 3123 3123 3123 3123 3123 3122 3122 3121 3120 3120 3120 3119 3118 3118 3117 3116 3115 3114 3112 3111 3111 3110 3110 3110 3110 3110 3109 3109 3108 3107 3106 3105 3105 3105 3104 3103 3102 3101 3100 3099 3098 3097 3094 3092 3092 3091 3089 3088 3086 3084 3084 3083 3082 3081 3079 3076 3075 3074 3072 3071 3070 3068 3067 3066 3064 3059 3053 3052 3060 3057 3042 3038 3042 3041 3040 3040 3038 3038 3037 3035 3035 3034 3033 3031 3029 3027
3122 3122 3122 3122 3122 3122 3122 3121 3121 3120 3120 3119 3119 3118 3117 3117 3116 3115 3115 3114 3111 3111 3110 3110 3110 3109 3109 3109 3108 3108 3107 3107 3105 3104 3104 3103 3103 3102 3101 3100 3098 3097 3096 3094 3091 3090 3090 3088 3087 3086 3084 3082 3081 3081 3079 3078 3077 3075 3074 3072 3070 3069 3067 3066 3065 3062 3063 3059 3049 3047 3053 3053 3043 3039 3040 3038 3036 3035 3034 3033 3032 3031 3030 3030 3029 3027 3025 3023
3121 3121 3121 3121 3121 3121 3121 3120 3120 3119 3119 3118 3118 3117 3117 3116 3116 3115 3115 3112 3111 3110 3110 3109 3109 3109 3108 3108 3108 3107 3106 3105 3104 3103 3103 3102 3102 3101 3100 3098 3096 3094 3093 3091 3089 3088 3088 3086 3085 3083 3081 3080 3079 3078 3077 3076 3074 3073 3072 3070 3068 3067 3064 3064 3061 3060 3061 3055 3046 3045 3048 3049 3046 3040 3037 3036 3034 3032 3030 3030 3029 3028 3028 3027 3025 3022 3019 3018
3120 3120 3120 3120 3120 3119 3119 3119 3118 3118 3118 3118 3117 3117 3116 3116 3115 3115 3114 3111 3110 3110 3109 3109 3109 3108 3107 3107 3106 3105 3104 3103 3103 3102 3102 3101 3101 3100 3098 3096 3094 3091 3090 3088 3087 3085 3085 3084 3083 3081 3079 3078 3078 3077 3075 3074 3073 3072 3070 3068 3067 3065 3063 3061 3058 3059 3059 3050 3044 3045 3046 3047 3046 3039 3035 3035 3034 3031 3028 3027 3026 3025 3025 3023 3021 3017 3015 3013
3118 3118 3118 3118 3118 3118 3118 3118 3117 3117 3117 3117 3116 3116 3115 3115 3114 3113 3113 3111 3110 3109 3109 3109 3108 3107 3107 3105 3104 3103 3102 3102 3101 3101 3100 3100 3100 3099 3097 3095 3093 3090 3087 3085 3084 3082 3081 3081 3081 3079 3078 3077 3076 3075 3074 3073 3072 3070 3069 3068 3067 3065 3063 3060 3056 3056 3054 3047 3043 3045 3045 3044 3041 3037 3035 3034 3033 3031 3027 3025 3024 3022 3021 3019 3017 3015 3012 3010
3117 3117 3117 3117 3117 3117 3117 3116 3116 3116 3116 3116 3115 3115 3115 3114 3113 3112 3112 3111 3110 3109 3109 3108 3107 3106 3106 3104 3103 3102 3102 3101 3101 3100 3099 3099 3098 3097 3096 3094 3093 3091 3088 3085 3082 3079 3076 3077 3078 3078 3077 3077 3076 3075 3074 3072 3070 3069 3067 3067 3067 3066 3064 3059 3055 3054 3050 3045 3043 3044 3044 3041 3037 3035 3034 3032 3031 3029 3027 3025 3023 3020 3018 3016 3014 3013 3011 3010
3116 3116 3116 3116 3116 3116 3116 3116 3115 3115 3115 3115 3114 3114 3114 3113 3112 3111 3111 3111 3110 3109 3108 3107 3106 3106 3105 3104 3103 3102 3101 3100 3099 3099 3098 3097 3096 3095 3094 3093 3092 3091 3089 3086 3084 3080 3077 3075 3075 3077 3076 3076 3076 3075 3074 3072 3070 3068 3066 3066 3065 3064 3063 3059 3055 3051 3047 3044 3044 3043 3041 3037 3033 3033 3032 3030 3029 3028 3026 3025 3023 3020 3017 3015 3013 3012 3010 3008
3115 3115 3115 3115 3115 3115 3115 3115 3115 3114 3114 3114 3113 3113 3113 3112 3111 3111 3110 3110 3109 3108 3107 3106 3105 3104 3104 3103 3102 3101 3100 3099 3098 3098 3097 3096 3095 3094 3093 3092 3092 3091 3089 3088 3086 3083 3079 3075 3074 3075 3074 3074 3073 3073 3072 3071 3068 3066 3064 3064 3062 3061 3060 3057 3053 3050 3047 3046 3044 3041 3038 3034 3032 3032 3030 3028 3027 3026 3025 3024 3021 3019 3017 3014 3012 3010 3009 3007
3114 3114 3114 3114 3114 3114 3114 3114 3113 3113 3113 3113 3113 3112 3112 3112 3111 3110 3110 3109 3108 3107 3106 3105 3104 3103 3103 3102 3101 3100 3100 3099 3097 3097 3096 3095 3094 3093 3093 3092 3091 3090 3090 3089 3087 3085 3081 3074 3071 3072 3071 3071 3070 3070 3070 3070 3067 3065 3063 3062 3060 3059 3058 3054 3051 3048 3047 3047 3042 3037 3035 3032 3031 3029 3027 3026 3025 3024 3023 3021 3018 3017 3014 3013 3010 3008 3006 3004
3114 3114 3114 3114 3114 3113 3113 3113 3113 3112 3112 3112 3112 3112 3111 3111 3110 3110 3109 3108 3107 3106 3105 3104 3103 3102 3102 3101 3100 3099 3099 3098 3097 3096 3095 3094 3093 3093 3092 3091 3090 3089 3089 3088 3088 3088 3084 3074 3069 3069 3069 3068 3068 3067 3067 3068 3066 3064 3062 3060 3058 3057 3055 3053 3051 3047 3047 3044 3038 3034 3033 3031 3029 3026 3024 3024 3022 3021 3020 3017 3016 3014 3012 3011 3009 3006 3004 3002
3113 3113 3113 3113 3113 3112 3112 3112 3112 3111 3111 3111 3111 3111 3111 3110 3110 3109 3108 3107 3107 3106 3105 3104 3103 3102 3101 3100 3099 3099 3098 3097 3096 3095 3094 3093 3093 3093 3092 3091 3090 3088 3088 3088 3086 3086 3085 3076 3068 3068 3068 3066 3066 3065 3065 3065 3064 3063 3061 3059 3057 3055 3052 3052 3051 3048 3046 3043 3036 3033 3031 3029 3026 3023 3021 3020 3018 3016 3015 3013 3012 3010 3009 3008 3006 3005 3003 3000
3113 3113 3112 3112 3112 3111 3111 3111 3111 3110 3110 3110 3110 3110 3110 3109 3109 3108 3107 3107 3106 3105 3104 3103 3103 3102 3101 3100 3099 3098 3097 3096 3095 3094 3093 3093 3092 3092 3091 3089 3088 3087 3086 3086 3085 3083 3084 3079 3069 3066 3067 3065 3064 3064 3063 3062 3062 3060 3058 3057 3057 3056 3053 3052 3050 3047 3045 3042 3036 3032 3029 3026 3024 3022 3020 3018 3016 3014 3011 3010 3008 3006 3005 3003 3002 3001 3000 2997
3112 3112 3111 3111 3111 3110 3110 3110 3110 3110 3110 3110 3110 3109 3109 3108 3108 3107 3107 3106 3105 3104 3104 3103 3102 3101 3100 3100 3098 3097 3096 3096 3095 3093 3093 3093 3092 3091 3090 3088 3086 3086 3084 3084 3083 3081 3080 3079 3071 3064 3064 3064 3063 3064 3062 3061 3059 3057 3056 3056 3055 3055 3053 3050 3048 3045 3044 3041 3037 3033 3028 3024 3023 3021 3020 3018 3015 3013 3010 3008 3006 3005 3003 3001 2999 2997 2995 2994
3111 3111 3110 3110 3110 3109 3109 3109 3109 3109 3109 3109 3109 3108 3108 3108 3107 3107 3106 3106 3105 3104 3103 3102 3102 3101 3100 3099 3098 3096 3095 3094 3093 3093 3092 3092 3092 3090 3088 3086 3084 3083 3082 3081 3080 3078 3077 3076 3071 3064 3062 3062 3062 3062 3061 3059 3057 3055 3055 3055 3054 3053 3051 3049 3046 3043 3042 3041 3039 3035 3028 3023 3022 3020 3018 3016 3014 3012 3010 3007 3005 3003 3002 3000 2997 2994 2992 2990
3110 3110 3109 3109 3109 3108 3108 3108 3108 3108 3108 3108 3108 3108 3107 3107 3107 3107 3106 3105 3104 3103 3103 3102 3101 3100 3099 3098 3097 3095 3094 3093 3092 3092 3092 3091 3091 3089 3086 3085 3084 3082 3080 3079 3077 3076 3075 3073 3069 3065 3062 3062 3061 3060 3059 3057 3055 3054 3053 3052 3052 3051 3050 3049 3046 3042 3040 3037 3036 3034 3028 3021 3019 3018 3016 3015 3013 3011 3009 3006 3004 3001 2999 2998 2995 2993 2990 2988
3109 3109 3109 3108 3108 3108 3108 3108 3108 3108 3108 3108 3107 3107 3107 3107 3107 3106 3106 3105 3104 3103 3102 3101 3100 3099 3099 3097 3096 3094 3092 3091 3091 3091 3091 3090 3089 3087 3085 3084 3082 3081 3079 3077 3075 3074 3073 3071 3068 3063 3060 3059 3058 3057 3056 3055 3054 3052 3050 3049 3049 3048 3047 3047 3044 3041 3038 3034 3032 3031 3025 3019 3018 3017 3015 3014 3012 3010 3007 3005 3002 3000 2997 2995 2993 2990 2987 2985
3109 3109 3108 3108 3108 3108 3108 3108 3108 3108 3108 3107 3107 3107 3107 3107 3106 3106 3105 3104 3103 3102 3101 3101 3100 3099 3098 3097 3095 3094 3092 3091 3090 3090 3089 3089 3087 3084 3083 3081 3080 3078 3076 3074 3073 3072 3071 3070 3067 3063 3059 3055 3053 3052 3051 3050 3048 3047 3046 3045 3045 3044 3043 3041 3039 3038 3036 3031 3030 3028 3022 3018 3017 3016 3014 3013 3011 3009 3006 3003 3001 2998 2995 2992 2990 2987 2985 2982
3109 3108 3108 3108 3108 3108 3108 3108 3108 3108 3108 3107 3107 3107 3106 3106 3106 3105 3104 3104 3103 3102 3101 3100 3099 3097 3096 3095 3094 3093 3092 3090 3089 3088 3087 3086 3084 3082 3081 3079 3077 3076 3074 3073 3072 3071 3069 3068 3067 3065 3064 3061 3057 3054 3052 3048 3045 3043 3042 3041 3040 3038 3038 3037 3036 3035 3033 3029 3027 3026 3021 3017 3016 3014 3012 3010 3009 3007 3004 3001 2999 2996 2993 2990 2987 2984 2982 2979
3109 3108 3108 3108 3108 3108 3108 3108 3108 3108 3108 3107 3107 3107 3106 3106 3105 3104 3104 3103 3102 3101 3100 3099 3098 3096 3095 3094 3093 3092 3091 3090 3088 3087 3086 3084 3082 3081 3079 3077 3075 3074 3073 3072 3071 3069 3068 3066 3065 3064 3064 3063 3060 3057 3055 3052 3048 3044 3041 3039 3037 3035 3034 3033 3033 3032 3030 3026 3023 3021 3019 3015 3013 3011 3008 3006 3004 3002 3000 2998 2995 2993 2990 2986 2983 2980 2978 2976
3109 3108 3108 3108 3108 3108 3108 3108 3108 3108 3107 3107 3107 3106 3106 3105 3105 3104 3103 3102 3101 3100 3099 3098 3097 3095 3094 3092 3091 3089 3088 3087 3086 3085 3084 3082 3080 3079 3077 3075 3074 3073 3072 3071 3069 3068 3066 3064 3063 3062 3060 3060 3057 3054 3052 3051 3047 3043 3040 3038 3036 3034 3031 3031 3030 3028 3027 3024 3019 3017 3016 3013 3010 3008 3005 3001 2999 2997 2996 2994 2991 2988 2986 2983 2979 2976 2974 2972
3109 3109 3108 3108 3108 3108 3108 3108 3107 3107 3107 3107 3106 3106 3105 3104 3104 3103 3102 3101 3100 3099 3098 3097 3095 3094 3092 3091 3089 3087 3086 3085 3084 3083 3082 3080 3078 3077 3075 3074 3072 3071 3070 3069 3068 3066 3064 3062 3060 3058 3056 3055 3053 3050 3049 3047 3044 3041 3039 3036 3034 3032 3029 3028 3027 3025 3024 3021 3017 3014 3013 3010 3007 3005 3002 2999 2996 2993 2991 2990 2987 2984 2982 2979 2975 2972 2970 2968
3109 3109 3109 3108 3108 3108 3108 3107 3107 3107 3107 3106 3106 3105 3104 3103 3103 3102 3101 3100 3099 3098 3097 3096 3095 3093 3091 3090 3088 3087 3085 3083 3082 3081 3080 3078 3077 3075 3073 3072 3071 3070 3068 3067 3066 3064 3062 3060 3058 3055 3051 3050 3049 3047 3045 3044 3041 3037 3035 3033 3031 3030 3028 3026 3025 3024 3022 3018 3015 3012 3010 3007 3005 3003 3000 2997 2994 2991 2988 2986 2984 2981 2978 2975 2971 2967 2965 2963
3109 3109 3108 3108 3108 3108 3107 3107 3107 3106 3106 3106 3105 3105 3104 3102 3101 3100 3100 3099 3098 3098 3097 3095 3094 3092 3091 3090 3088 3087 3085 3084 3082 3080 3078 3077 3076 3074 3072 3071 3070 3069 3067 3066 3064 3062 3061 3059 3057 3053 3048 3046 3045 3044 3042 3040 3037 3033 3031 3030 3029 3028 3027 3025 3023 3022 3019 3015 3012 3010 3006 3004 3003 3000 2997 2994 2991 2987 2985 2982 2980 2978 2975 2970 2966 2963 2959 2957
3109 3109 3108 3108 3108 3107 3107 3107 3106 3106 3106 3105 3105 3104 3103 3102 3100 3099 3099 3098 3097 3096 3096 3095 3093 3092 3091 3090 3088 3087 3086 3084 3083 3081 3079 3077 3075 3074 3072 3071 3069 3067 3066 3064 3062 3061 3059 3057 3055 3052 3047 3043 3043 3041 3038 3036 3033 3030 3029 3029 3028 3027 3025 3024 3022 3021 3018 3013 3009 3007 3004 3001 2999 2996 2992 2989 2986 2983 2981 2978 2975 2973 2970 2966 2961 2958 2954 2951
3109 3109 3108 3108 3108 3107 3107 3106 3106 3106 3105 3105 3104 3103 3103 3101 3100 3099 3098 3098 3097 3096 3095 3094 3093 3092 3090 3089 3088 3087 3086 3084 3082 3080 3079 3077 3075 3074 3072 3070 3069 3067 3065 3063 3061 3059 3057 3054 3053 3051 3046 3042 3041 3039 3035 3032 3029 3027 3028 3028 3027 3026 3024 3022 3021 3020 3018 3014 3009 3006 3002 2998 2995 2992 2989 2985 2981 2978 2976 2973 2970 2966 2963 2960 2956 2953 2950 2946